Wind_Speed
49 54 53 48 53 36 38 40 36 46 27 34 27 34 25 28 36 33 30 28 25 23 22 24 25 25 25 24 23 21 19 18 17 16 17 17 18 19 20 18 19 15 15 18
44 52 53 46 34 38 38 39 32 37 28 25 27 30 29 33 32 38 35 33 29 25 28 27 26 26 25 23 21 21 19 19 18 19 20 21 22 22 20 17 14 14 18 19
57 42 43 45 31 44 30 45 46 31 31 23 19 30 35 34 36 38 41 32 32 30 30 29 29 27 25 25 22 21 20 20 20 22 24 23 24 23 20 16 18 17 18 22
32 22 36 38 37 29 41 33 42 35 32 29 22 16 37 36 40 41 42 43 39 37 33 30 31 31 28 25 24 23 23 24 23 25 24 24 24 25 20 21 22 24 23 23
18 36 40 38 36 33 29 33 30 30 37 30 29 16 31 37 48 49 42 41 41 39 35 33 33 31 29 28 27 27 27 27 26 27 25 27 28 27 25 26 26 25 26 24
20 30 27 32 34 36 22 30 24 23 19 14 33 32 30 41 41 43 49 46 42 41 39 36 32 33 34 33 32 31 30 29 28 29 27 28 30 28 29 29 26 28 26 26
22 33 30 35 34 34 28 31 6 5 4 3 33 26 29 22 37 41 40 46 46 41 39 37 36 36 37 36 34 33 33 31 30 29 28 30 31 30 30 31 30 28 27 28
11 9 25 29 32 23 40 32 9 6 6 8 16 19 26 38 19 33 38 43 49 50 46 40 35 35 36 37 36 35 34 34 33 31 31 32 30 33 33 30 29 32 29 28
5 6 26 24 31 24 28 22 10 4 1 8 13 14 13 22 38 34 31 36 42 51 48 42 39 39 37 37 37 36 36 37 35 33 34 32 32 34 33 32 33 30 28 25
4 7 22 21 26 26 25 26 7 7 6 6 9 14 18 19 24 34 39 33 43 46 44 42 45 45 42 39 37 38 38 38 37 34 32 31 32 33 30 36 31 29 26 24
11 5 18 26 23 33 28 27 13 7 5 3 3 5 9 21 14 32 35 20 32 39 40 41 39 40 44 41 38 38 39 38 35 32 31 31 31 29 30 28 25 26 25 24
19 6 12 24 22 27 29 27 34 10 5 5 1 4 5 21 25 22 40 28 23 22 27 34 38 33 39 41 39 38 37 35 32 30 30 28 23 24 25 23 23 25 24 22
21 7 8 6 17 20 30 34 31 20 10 17 9 4 5 6 24 20 27 40 37 35 34 32 31 32 34 36 35 34 33 31 29 28 25 20 21 21 20 22 24 23 22 23
17 11 9 5 5 18 29 34 34 27 16 12 22 14 5 7 11 17 21 25 28 30 29 26 27 29 31 32 33 31 30 28 27 23 20 20 19 19 21 23 22 22 23 22
14 7 15 12 12 9 12 26 35 41 41 18 15 16 19 12 11 7 9 13 15 17 21 17 14 17 22 24 27 27 28 27 23 20 19 18 17 19 22 22 22 22 22 21
13 5 10 11 11 13 15 15 22 38 43 44 19 21 19 16 20 13 14 16 14 14 12 13 18 21 20 23 27 27 25 22 21 20 18 16 17 20 21 22 22 22 21 22
10 8 6 2 10 6 11 22 25 26 31 32 41 46 28 21 27 26 22 20 16 16 16 19 25 25 22 24 24 23 22 22 20 18 17 17 19 19 20 21 22 21 21 21
7 7 6 1 4 4 4 4 10 25 23 27 36 35 33 35 28 33 32 33 30 27 25 26 22 26 26 26 27 27 24 19 18 16 17 19 19 18 20 21 20 20 21 20
12 10 3 2 5 9 6 5 8 10 15 22 28 26 27 30 34 37 38 41 39 34 34 33 27 28 28 28 26 23 21 19 17 16 17 18 19 19 20 20 19 20 20 21
8 11 10 5 2 2 5 6 6 7 13 13 14 14 18 25 36 30 30 34 38 40 43 46 41 37 29 28 28 27 24 20 17 17 18 20 21 21 20 19 19 20 21 23
3 7 13 10 5 6 8 7 5 5 4 7 8 9 13 18 22 23 26 28 31 35 35 35 42 40 34 31 28 25 23 21 20 22 21 21 21 19 19 21 21 21 24 26
2 2 4 8 6 4 5 10 11 8 7 9 9 8 8 8 9 12 16 20 25 28 29 33 34 39 42 41 38 33 29 26 25 24 23 23 21 20 20 21 22 23 25 26
5 7 3 6 4 7 5 6 12 13 14 13 14 13 12 12 12 12 13 15 15 19 26 28 31 33 32 34 39 35 33 28 29 27 24 24 22 21 21 21 22 24 26 28
14 14 13 13 10 12 14 14 11 13 16 19 17 17 17 16 17 15 13 13 14 14 19 25 28 29 31 32 33 35 34 33 33 28 26 24 21 20 20 20 22 23 25 27
20 20 21 24 22 20 20 20 16 19 19 17 18 20 24 20 19 20 19 18 15 13 12 19 23 25 25 28 32 33 31 29 28 27 24 22 22 21 20 21 20 22 25 29
23 27 31 32 24 23 23 20 19 23 23 19 17 17 14 18 22 20 23 21 19 13 12 14 16 17 19 22 24 25 26 26 24 23 22 21 19 18 19 19 20 22 25 29
Wind_Direction
209 200 202 216 208 205 207 203 205 210 215 217 211 213 217 212 209 210 215 212 211 208 207 207 203 203 202 203 208 211 216 224 232 240 248 252 257 259 269 278 279 277 295 300
184 199 210 210 200 205 206 202 197 198 205 204 209 218 214 221 216 216 216 217 214 209 213 214 212 213 212 214 217 222 227 235 241 247 251 251 254 263 280 279 279 282 283 303
195 201 197 207 211 209 198 208 207 203 197 198 198 224 221 225 220 217 217 219 221 217 219 219 222 221 222 223 225 231 235 241 245 249 253 256 259 271 275 274 276 283 284 301
189 182 186 200 211 220 217 205 208 211 210 207 209 234 227 222 223 221 218 218 219 220 221 224 227 227 229 231 233 237 240 245 247 252 258 259 260 266 267 267 271 275 289 298
180 193 193 206 214 225 211 212 211 218 209 207 215 228 226 223 223 221 217 219 223 224 225 228 231 233 234 234 236 239 242 246 250 256 259 258 258 262 265 269 272 274 286 294
166 174 185 196 210 212 207 203 197 206 190 197 209 209 234 223 225 225 223 221 224 225 227 230 233 233 235 235 235 238 243 248 254 257 259 261 261 259 262 269 269 274 274 290
155 169 179 191 194 189 186 177 123 186 188 237 206 206 220 223 227 220 224 221 223 228 230 230 234 234 234 236 237 239 242 247 254 259 260 262 261 258 260 263 268 254 289 286
152 157 169 189 190 189 197 190 169 165 186 165 169 219 220 228 203 224 228 229 234 236 230 231 235 233 235 238 238 240 244 248 253 258 261 260 258 255 258 250 260 264 275 282
120 131 185 186 196 197 184 205 212 67 166 174 206 233 234 218 216 219 227 234 233 226 225 226 233 234 237 238 238 240 243 247 255 257 259 257 251 252 255 256 262 268 270 281
168 124 180 180 194 200 195 199 190 192 183 221 201 232 239 227 232 226 223 234 224 222 226 230 233 236 239 237 238 241 243 249 256 256 257 253 250 247 244 254 252 260 271 278
209 169 180 189 198 203 197 193 191 192 233 284 238 240 235 225 235 222 208 204 216 219 227 230 232 237 235 236 236 241 244 251 255 256 254 250 248 249 253 256 259 269 272 272
212 187 154 193 205 212 207 211 206 203 208 241 51 269 258 209 210 213 209 205 205 202 222 227 228 231 231 236 240 242 247 250 252 250 247 248 249 249 252 261 263 265 267 264
213 195 126 182 217 208 214 215 216 215 242 223 208 208 261 352 214 216 218 219 222 224 234 228 226 229 231 236 241 243 247 249 244 241 241 243 246 254 260 261 262 263 262 253
207 197 182 188 198 209 214 220 219 210 220 222 227 232 264 244 227 236 243 230 218 229 226 230 237 240 242 245 246 246 244 238 233 234 230 238 247 253 256 258 261 260 252 244
210 230 215 211 221 212 224 235 226 220 224 227 235 240 236 231 206 197 191 196 199 204 206 208 230 251 252 248 242 235 231 232 229 225 231 240 249 257 261 264 262 254 245 238
217 238 216 211 216 219 222 230 244 236 233 232 238 242 230 229 240 229 215 202 200 211 233 252 269 266 262 249 241 239 232 222 221 225 234 243 255 260 263 261 253 248 238 237
228 232 205 216 212 224 262 239 236 242 238 238 236 243 239 234 229 234 235 224 217 234 249 264 265 261 254 238 232 225 220 221 225 233 244 251 251 256 257 256 252 245 239 237
233 217 196 56 173 229 272 278 245 244 254 250 252 255 257 253 237 226 233 235 234 234 247 245 256 255 244 229 223 221 223 225 238 245 248 248 256 261 258 253 247 241 239 235
223 233 196 188 220 277 307 265 237 235 257 248 248 249 250 254 254 245 243 244 244 238 241 256 248 243 230 226 225 224 228 237 240 252 247 253 259 260 258 251 245 242 240 237
220 229 223 188 248 272 318 254 242 239 256 245 252 255 252 248 251 256 250 246 245 248 249 250 245 233 230 229 230 233 241 243 253 250 244 249 256 257 255 246 242 239 237 237
166 224 227 231 235 273 249 235 303 188 271 257 241 242 246 251 255 258 258 258 255 250 245 241 234 233 235 232 232 237 239 243 249 236 239 251 256 258 251 244 240 239 237 238
226 199 215 226 228 265 266 247 241 253 271 263 238 242 248 252 253 253 257 260 257 251 245 241 238 237 240 243 243 244 244 246 231 234 246 250 252 251 251 248 243 243 242 245
250 227 240 221 234 259 295 272 270 279 270 258 257 250 252 259 263 267 271 274 273 257 242 237 233 235 238 239 236 234 235 229 227 243 246 244 247 251 254 252 248 246 247 249
262 259 260 272 269 273 280 272 280 288 280 257 259 268 267 268 266 267 275 291 291 272 242 232 230 231 235 232 227 226 230 231 231 240 239 241 249 255 255 251 247 249 254 256
264 268 264 263 263 269 265 266 259 266 271 278 278 277 269 272 270 272 273 280 292 289 257 229 223 224 228 230 230 229 226 226 231 228 231 242 251 253 246 245 247 251 253 258
276 267 260 265 272 267 265 264 264 260 251 249 256 271 282 281 269 275 274 273 270 267 250 236 228 228 224 219 216 214 215 215 214 223 235 249 247 244 247 252 256 259 262 265
Height
3021 3029 3030 3044 3054 3066 3072 3078 3081 3090 3094 3096 3100 3104 3107 3109 3113 3118 3121 3125 3128 3131 3135 3137 3140 3143 3145 3148 3151 3153 3156 3159 3161 3163 3164 3165 3166 3166 3166 3167 3165 3166 3166 3165
3016 3015 3025 3046 3053 3058 3064 3071 3075 3083 3086 3091 3095 3098 3103 3103 3108 3113 3117 3120 3124 3128 3130 3133 3137 3140 3143 3146 3149 3151 3154 3156 3158 3159 3160 3161 3162 3162 3163 3163 3162 3163 3162 3161
3011 3015 3028 3038 3044 3053 3056 3062 3070 3075 3079 3085 3089 3091 3093 3097 3102 3106 3111 3117 3120 3123 3125 3130 3133 3136 3140 3142 3146 3148 3151 3152 3154 3155 3156 3157 3157 3158 3160 3159 3159 3159 3158 3157
3008 3015 3022 3032 3039 3050 3054 3059 3066 3074 3075 3079 3086 3081 3085 3091 3094 3097 3103 3108 3113 3117 3121 3125 3129 3132 3136 3139 3142 3145 3146 3147 3150 3150 3152 3153 3154 3154 3155 3155 3155 3154 3154 3153
3005 3011 3018 3028 3032 3045 3050 3055 3060 3066 3070 3075 3079 3087 3078 3083 3081 3087 3094 3100 3107 3112 3116 3120 3124 3128 3133 3135 3137 3139 3141 3142 3144 3145 3147 3148 3148 3150 3151 3151 3150 3150 3149 3148
3002 3008 3019 3024 3032 3041 3043 3049 3055 3061 3064 3067 3070 3077 3072 3069 3075 3083 3087 3094 3100 3105 3110 3115 3119 3123 3127 3129 3131 3134 3136 3138 3139 3140 3142 3142 3143 3146 3146 3146 3146 3145 3144 3144
3003 3009 3013 3019 3028 3033 3038 3041 3056 3064 3062 3057 3061 3071 3060 3066 3071 3076 3080 3086 3093 3099 3104 3108 3112 3116 3119 3122 3126 3128 3130 3132 3133 3135 3135 3136 3138 3139 3140 3139 3140 3139 3138 3139
3002 3010 3009 3015 3022 3025 3032 3039 3044 3045 3047 3053 3062 3053 3049 3061 3063 3067 3073 3080 3085 3091 3096 3101 3106 3109 3113 3116 3119 3122 3124 3126 3127 3128 3129 3130 3132 3132 3134 3133 3133 3133 3134 3134
3001 3005 3010 3014 3019 3026 3031 3035 3039 3041 3046 3048 3048 3042 3044 3049 3055 3059 3064 3069 3075 3080 3086 3092 3097 3102 3105 3109 3112 3115 3117 3118 3120 3120 3121 3124 3124 3125 3127 3127 3126 3128 3128 3128
3004 3007 3008 3013 3017 3024 3028 3036 3042 3044 3046 3041 3032 3036 3037 3042 3047 3052 3056 3062 3066 3072 3078 3084 3089 3093 3097 3101 3104 3106 3108 3110 3112 3112 3115 3116 3117 3118 3121 3122 3122 3122 3122 3121
3004 3006 3012 3014 3017 3020 3027 3031 3036 3039 3038 3032 3029 3032 3035 3039 3042 3045 3053 3056 3059 3066 3072 3077 3081 3084 3089 3093 3096 3099 3101 3103 3104 3106 3107 3108 3109 3112 3114 3115 3115 3116 3116 3115
3005 3005 3009 3012 3014 3018 3024 3028 3032 3033 3036 3035 3035 3033 3033 3033 3036 3039 3045 3052 3055 3060 3067 3070 3074 3077 3081 3086 3089 3091 3094 3096 3097 3098 3099 3102 3105 3107 3108 3109 3109 3109 3110 3110
3003 3005 3009 3013 3017 3017 3018 3022 3026 3032 3032 3032 3035 3032 3034 3033 3036 3039 3044 3047 3051 3056 3061 3065 3067 3071 3075 3078 3081 3084 3086 3087 3089 3092 3094 3097 3099 3100 3101 3101 3103 3104 3105 3105
3001 3001 3003 3005 3006 3009 3012 3017 3022 3028 3029 3029 3030 3034 3035 3036 3035 3038 3042 3045 3050 3053 3056 3060 3063 3066 3069 3072 3075 3077 3078 3080 3083 3087 3089 3091 3093 3094 3095 3096 3097 3098 3099 3099
3000 3000 3002 3003 3007 3008 3011 3013 3017 3018 3023 3027 3030 3031 3035 3034 3035 3038 3042 3044 3047 3050 3052 3054 3057 3059 3063 3065 3068 3070 3072 3075 3079 3082 3084 3086 3087 3088 3089 3092 3092 3092 3094 3095
2998 3000 3001 3003 3004 3006 3008 3009 3011 3015 3019 3021 3025 3026 3028 3032 3036 3040 3042 3044 3046 3048 3049 3049 3051 3055 3058 3060 3062 3064 3068 3071 3075 3077 3079 3081 3082 3084 3084 3085 3086 3086 3088 3090
2998 2998 3001 3003 3004 3006 3006 3003 3006 3010 3013 3017 3016 3020 3027 3029 3033 3037 3039 3040 3041 3041 3043 3045 3048 3050 3052 3055 3058 3062 3064 3067 3070 3073 3074 3076 3077 3077 3079 3079 3080 3081 3084 3086
2997 2999 3001 3003 3004 3004 3001 3001 3002 3005 3009 3010 3011 3017 3021 3024 3027 3029 3031 3033 3033 3036 3039 3043 3043 3044 3047 3050 3053 3056 3060 3063 3066 3068 3070 3070 3072 3072 3073 3073 3075 3077 3079 3082
2998 2999 3001 3004 3005 3003 3002 3001 3003 3003 3006 3006 3007 3011 3015 3016 3017 3017 3024 3025 3027 3028 3032 3035 3037 3039 3041 3044 3048 3051 3055 3059 3061 3063 3064 3065 3067 3068 3068 3069 3070 3071 3073 3076
2996 2998 3002 3003 3004 3003 3000 3000 3001 3003 3005 3005 3005 3007 3009 3011 3009 3013 3015 3015 3018 3021 3024 3026 3029 3032 3035 3038 3042 3046 3050 3053 3056 3058 3059 3061 3062 3062 3063 3064 3065 3066 3068 3071
2995 2997 3000 3001 3003 3000 3000 3002 3003 3005 3008 3003 3004 3005 3005 3006 3007 3007 3006 3006 3007 3009 3014 3016 3019 3024 3027 3031 3035 3039 3043 3047 3050 3051 3052 3054 3056 3057 3057 3058 3059 3060 3062 3064
2999 2999 2999 3001 3002 3002 3000 3001 3004 3003 3004 3004 3004 3004 3005 3004 3004 3003 3001 3001 3000 3002 3004 3007 3011 3016 3019 3023 3027 3031 3036 3040 3042 3044 3046 3048 3049 3050 3051 3051 3052 3053 3055 3057
3000 3000 3000 3001 2998 2996 2996 2997 2999 3001 3003 3003 3004 3003 3003 3003 3002 3001 2998 2997 2996 2995 2997 2999 3003 3007 3011 3014 3018 3023 3028 3031 3033 3035 3039 3041 3042 3043 3044 3044 3045 3047 3048 3050
2996 2996 2995 2996 2995 2995 2995 2997 2998 2999 2999 3000 3001 3000 3000 3000 2999 2998 2996 2994 2993 2992 2991 2992 2996 2999 3003 3006 3011 3016 3020 3022 3026 3029 3031 3034 3035 3036 3037 3038 3040 3041 3044 3045
2991 2992 2991 2989 2989 2991 2991 2992 2994 2995 2995 2996 2996 2995 2995 2994 2995 2995 2993 2992 2990 2989 2988 2988 2990 2993 2996 2999 3004 3009 3013 3017 3020 3022 3025 3028 3029 3029 3031 3034 3034 3035 3037 3039
2984 2984 2983 2981 2983 2983 2983 2985 2986 2988 2991 2990 2991 2992 2991 2988 2990 2990 2990 2988 2987 2986 2986 2986 2986 2988 2990 2992 2997 3002 3007 3012 3015 3018 3020 3022 3023 3025 3027 3029 3030 3031 3032 3032